#timestamp,LO_Frequency,Hit,StdDev 
1514660415.3,286046996.8,N
1514660435.2,286046999.0,N
1514660455.0,286046997.6,N
1514660455.9,286046997.6,N
1514660475.8,286046997.5,N
1514660495.6,286046994.9,N
1514660515.4,286046999.5,N
1514660535.3,286047000.0,N
1514660555.1,286046998.4,N
1514660575.8,286046998.7,N
1514660595.7,286046998.9,N
1514660615.5,286047002.2,N
1514660635.4,286047003.8,N
1514660655.2,286047004.3,N
1514660675.0,286047004.3,N
1514660675.9,286047004.3,N
1514660695.8,286047003.3,N
1514660715.6,286047004.2,N
1514660735.4,286047000.3,N
1514660755.3,286047000.4,N
1514660775.1,286047000.4,N
1514660795.9,286046998.3,N
1514660815.7,286047000.9,N
1514660835.5,286046998.1,N
1514660855.4,286047000.8,N
1514660875.2,286046999.9,N
1514660925.1,286047005.9,E
1514660935.9,286047000.9,N
1514660955.7,286046997.7,P
1514660975.6,286046995.3,N
1514660995.4,286046998.0,N
1514661015.2,286046994.2,N
1514661035.1,286046994.8,N
1514661036.0,286046994.8,N
1514661055.8,286046992.5,Y
1514661075.7,286046997.4,P
1514661095.5,286046999.1,N
1514661115.3,286046998.0,N
1514661135.2,286046996.8,Y
1514661155.0,286047000.7,P
1514661155.9,286047000.7,N
1514661175.7,286046999.9,N
1514661195.6,286046999.9,N
1514661215.4,286047001.2,N
1514661235.3,286046996.8,N
1514661255.1,286046997.7,N
1514661275.8,286046997.4,N
1514661295.7,286047000.9,N
1514661315.5,286046999.8,N
1514661335.4,286047002.4,N
1514661355.2,286047001.6,N
1514661375.0,286047002.9,N
1514661375.9,286047002.9,N
1514661395.8,286047004.2,N
1514661415.6,286047001.6,N
1514661435.4,286047004.4,N
1514661455.3,286047002.0,N
1514661475.1,286046999.7,N
1514661495.9,286046998.5,N
1514661515.7,286047002.5,N
1514661535.5,286047002.3,N
1514661555.4,286046999.3,N
1514661575.2,286046998.6,N
1514661595.0,286046997.3,N
1514661596.0,286046997.3,N
1514661615.8,286046997.1,N
1514661635.6,286046999.4,N
1514661655.5,286046999.5,N
1514661675.3,286046996.9,N
1514661695.1,286046997.3,N
1514661715.9,286046993.9,N
1514661735.7,286046993.5,N
1514661755.6,286046996.5,N
1514661775.4,286047000.8,N
1514661795.2,286046998.1,N
1514661815.1,286047002.5,N
1514661816.0,286047002.5,N
1514661835.8,286047000.6,N
1514661855.6,286046998.7,N
1514661875.5,286047001.1,N
1514661895.3,286047000.3,N
1514661915.2,286047002.6,N
1514661935.9,286047000.1,N
1514661955.7,286047000.4,N
1514661975.6,286047000.8,N
1514661995.4,286046998.8,N
1514662015.3,286047001.2,N
1514662035.1,286047000.1,N
1514662036.0,286047000.1,N
1514662055.8,286047000.1,N
1514662075.7,286046998.4,N
1514662095.5,286047000.1,N
1514662115.3,286047004.1,N
1514662135.2,286047002.1,N
1514662155.0,286046999.8,N
1514662155.9,286046999.8,N
1514662175.8,286046999.7,N
1514662195.6,286047002.8,N
1514662215.4,286047002.8,N
1514662235.3,286047000.3,N
1514662255.1,286047000.2,N
1514662275.9,286046998.3,N
1514662295.7,286046999.1,N
1514662315.5,286046997.5,N
1514662335.4,286046999.5,N
1514662355.2,286046998.1,N
1514662375.0,286047000.4,N
1514662375.9,286047000.4,N
1514662395.8,286046998.9,N
1514662415.6,286046999.4,N
1514662435.5,286046998.2,N
1514662455.3,286046998.9,N
1514662475.1,286046998.4,N
1514662495.9,286047001.2,N
1514662515.7,286047002.4,N
1514662535.5,286047002.7,N
1514662555.4,286047002.6,N
1514662575.2,286047000.4,N
1514662595.1,286046999.7,N
1514662596.0,286046999.7,N
1514662615.8,286047002.0,N
1514662635.6,286047003.7,N
1514662655.5,286047002.6,N
1514662675.3,286047001.9,N
1514662695.2,286047002.4,N
1514662715.9,286046999.7,N
1514662735.7,286046998.3,N
1514662755.6,286046999.0,N
1514662775.4,286046998.6,N
1514662795.2,286047001.2,N
1514662815.1,286047001.5,N
1514662816.0,286047001.5,N
1514662835.8,286046999.8,N
1514662855.7,286047002.5,N
1514662875.5,286047002.1,N
1514662895.3,286047002.4,N
1514662915.2,286047001.8,N
1514662935.0,286047001.8,N
1514662935.9,286047001.8,N
1514662955.8,286047002.0,N
1514662975.6,286047003.9,N
1514662995.4,286047002.0,N
1514663015.3,286047002.8,N
1514663035.1,286047002.2,N
1514663055.8,286047003.0,N
1514663075.7,286047005.2,Y
1514663095.5,286047002.1,P
1514663115.4,286047002.2,P
1514663135.2,286047002.1,P
1514663155.0,286047002.7,Y
1514663155.9,286047002.7,P
1514663175.8,286046998.7,P
1514663195.6,286046996.3,N
1514663215.5,286046997.4,N
1514663235.3,286046995.1,N
1514663255.1,286046996.6,N
1514663275.9,286046999.2,N
1514663295.7,286046998.9,N
1514663315.5,286046996.9,N
1514663335.4,286046996.6,N
1514663355.2,286046997.2,N
1514663375.1,286046999.0,N
1514663376.0,286046999.0,N
1514663395.8,286046996.9,N
1514663415.6,286046996.5,N
1514663435.5,286046999.5,N
1514663455.3,286046996.8,N
1514663475.2,286046997.4,N
1514663495.9,286046998.9,N
1514663515.7,286046998.4,N
1514663535.6,286046998.9,N
1514663555.4,286046995.8,N
1514663575.2,286046996.2,N
1514663595.1,286046998.7,N
1514663596.0,286046998.7,N
1514663615.8,286047002.8,N
1514663635.7,286046999.7,N
1514663655.5,286047001.1,N
1514663675.3,286046998.3,N
1514663695.2,286046998.5,N
1514663715.0,286046997.7,N
1514663715.9,286046997.7,N
1514663735.8,286046998.3,N
1514663755.6,286046997.2,N
1514663775.4,286046996.9,N
1514663795.3,286046999.5,N
1514663815.1,286046994.9,Y
1514663835.8,286046998.5,P
1514663855.7,286046998.1,P
1514663875.5,286046998.8,P
1514663895.4,286046997.9,Y
1514663915.2,286046996.8,P
1514663935.0,286046998.8,N
1514663935.9,286046998.8,N
1514663955.8,286046998.8,N
1514663975.6,286047000.9,N
1514663995.5,286046998.8,N
